Regional Weather Roundup
Issued by NWS

Home | Current Version | Previous Version | Text Only | Print | Product List | Glossary On
Versions: 1 2 3 4 5 6 7 8 9 10 11 12 13 14 15 16 17 18 19 20 21 22 23 24 25 26 27 28 29 30 31 32 33 34 35 36 37 38 39 40 41 42 43 44 45 46 47 48 49 50
000
ASUS44 KBMX 051210
RWRAL

ALABAMA REGIONAL WEATHER ROUNDUP
NATIONAL WEATHER SERVICE BIRMINGHAM AL
700 AM CDT WED AUG 05 2015

NOTE: "FAIR" INDICATES FEW OR NO CLOUDS BELOW 12,000 FEET
WITH NO SIGNIFICANT WEATHER AND/OR OBSTRUCTIONS TO VISIBILITY.

THE REMARK "TC" DENOTES TEMPERATURE IN DEGREES CELSIUS.

ALZ001>011-014-016>018-020-051300-
NORTH ALABAMA

CITY           SKY/WX    TMP DP  RH WIND       PRES   REMARKS
MUSCLE SHOALS  MOSUNNY   75  70  84 SE6       30.02R
6HR MIN TEMP:  73; 6HR MAX TEMP:  77;

HUNTSVILLE     MOSUNNY   75  71  87 S5        30.02S
6HR MIN TEMP:  73; 6HR MAX TEMP:  80;

DECATUR        MOSUNNY   74  71  91 SE3       30.02S
6HR MIN TEMP:  70; 6HR MAX TEMP:  78;

HALEYVILLE     FAIR      71  71 100 CALM      30.06R
6HR MIN TEMP:  70; 6HR MAX TEMP:  74;

GADSDEN        MOSUNNY   72  63  73 CALM      30.03R
6HR MIN TEMP:  68; 6HR MAX TEMP:  79;

$$

ALZ012-013-022-023-030>036-040>044-051300-
WEST CENTRAL ALABAMA

CITY           SKY/WX    TMP DP  RH WIND       PRES   REMARKS
TUSCALOOSA     CLEAR     75  71  87 CALM      30.02R FOG
6HR MIN TEMP:  73; 6HR MAX TEMP:  77;

$$

ALZ015-024>027-033>036-040>044-051300-
CENTRAL ALABAMA

CITY           SKY/WX    TMP DP  RH WIND       PRES   REMARKS
BIRMINGHAM     MOSUNNY   77  71  82 CALM      30.05S
6HR MIN TEMP:  73; 6HR MAX TEMP:  77;

MONTGOMERY     SUNNY     75  71  87 S3        30.04R
6HR MIN TEMP:  73; 6HR MAX TEMP:  79;

SHELBY CO ARPT SUNNY     74  70  87 CALM      30.04R
6HR MIN TEMP:  73; 6HR MAX TEMP:  79;

MAXWELL AFB    SUNNY     75  71  87 SW2       30.03
6HR MIN TEMP:  73; 6HR MAX TEMP:  77;

GREENVILLE     FAIR      73  69  87 CALM      30.05R
6HR MIN TEMP:  70; 6HR MAX TEMP:  75;

$$

ALZ019-021-028-029-037-038-045>048-051300-
EAST CENTRAL ALABAMA

CITY           SKY/WX    TMP DP  RH WIND       PRES   REMARKS
ANNISTON       MOSUNNY   71  67  87 W5        30.04S
6HR MIN TEMP:  69; 6HR MAX TEMP:  74;

ALEXANDER CITY SUNNY     69  65  88 CALM      30.06R
6HR MIN TEMP:  67; 6HR MAX TEMP:  74;

AUBURN           N/A    N/A N/A N/A MISG        N/A
$$

ALZ051>064-051300-
SOUTHWEST ALABAMA

CITY           SKY/WX    TMP DP  RH WIND       PRES   REMARKS
MOBILE         MOCLDY    77  75  93 S7        30.02S
6HR MIN TEMP:  77; 6HR MAX TEMP:  81;

BROOKLEY FIELD CLOUDY    77  75  93 VRB3      30.03S
6HR MIN TEMP:  77; 6HR MAX TEMP:  82; 6HR PCP:  0.17;

EVERGREEN      CLEAR     72  70  93 CALM      30.04R FOG
6HR MIN TEMP:  70; 6HR MAX TEMP:  74;

$$

ALZ049-050-065>069-051300-
SOUTHEAST ALABAMA

CITY           SKY/WX    TMP DP  RH WIND       PRES   REMARKS
DOTHAN         SUNNY     76  75  97 S3        30.10R
6HR MIN TEMP:  75; 6HR MAX TEMP:  77;

OZARK          SUNNY     75  75 100 S2        30.06R
6HR MIN TEMP:  74; 6HR MAX TEMP:  77;

TROY           SUNNY     74  72  93 CALM      30.06R
6HR MIN TEMP:  71; 6HR MAX TEMP:  76;

EUFAULA        PTSUNNY   76  74  93 CALM      30.05R
6HR MIN TEMP:  72; 6HR MAX TEMP:  77;

$$



USA.gov is the U.S. government's official web portal to all federal, state and local government web resources and services.